Time,TemperatureF,DewpointF,PressureIn,WindDirection,WindDirectionDegrees,WindSpeedMPH,WindSpeedGustMPH,Humidity,HourlyPrecipIn,Conditions,Clouds,dailyrainin,SoftwareType,DateUTC
2013-03-08 00:02:00,27.0,23.0,27.05,East,90,0.0,2.0,83,0.00,,,0.00,Rainwise IP-100,2013-03-08 07:02:00,
2013-03-08 00:07:00,27.0,24.0,27.05,SE,135,0.0,4.0,87,0.00,,,0.00,Rainwise IP-100,2013-03-08 07:07:00,
2013-03-08 00:12:00,27.0,24.0,27.05,ESE,112,0.0,5.0,87,0.00,,,0.00,Rainwise IP-100,2013-03-08 07:12:00,
2013-03-08 00:17:00,27.0,24.0,27.05,ESE,112,2.0,2.0,86,0.00,,,0.00,Rainwise IP-100,2013-03-08 07:17:00,
2013-03-08 00:22:00,27.0,24.0,27.05,East,90,2.0,3.0,87,0.00,,,0.00,Rainwise IP-100,2013-03-08 07:22:00,
2013-03-08 00:27:00,27.0,24.0,27.05,East,90,0.0,3.0,85,0.00,,,0.00,Rainwise IP-100,2013-03-08 07:27:00,
2013-03-08 00:32:00,27.0,24.0,27.05,East,90,2.0,0.0,87,0.00,,,0.00,Rainwise IP-100,2013-03-08 07:32:00,
2013-03-08 00:37:00,26.0,23.0,27.05,East,90,0.0,2.0,88,0.00,,,0.00,Rainwise IP-100,2013-03-08 07:37:00,
2013-03-08 00:42:00,25.0,23.0,27.05,East,90,0.0,0.0,88,0.00,,,0.00,Rainwise IP-100,2013-03-08 07:42:00,
2013-03-08 00:47:00,25.0,24.0,27.06,East,90,2.0,2.0,91,0.00,,,0.00,Rainwise IP-100,2013-03-08 07:47:00,
2013-03-08 00:52:00,25.0,24.0,27.06,East,90,0.0,2.0,92,0.00,,,0.00,Rainwise IP-100,2013-03-08 07:52:00,
2013-03-08 00:57:00,26.0,24.0,27.05,East,90,1.0,3.0,93,0.00,,,0.00,Rainwise IP-100,2013-03-08 07:57:00,
2013-03-08 01:02:00,26.0,24.0,27.05,East,90,2.0,3.0,92,0.00,,,0.00,Rainwise IP-100,2013-03-08 08:02:00,
2013-03-08 01:07:00,26.0,24.0,27.05,East,90,1.0,5.0,92,0.00,,,0.00,Rainwise IP-100,2013-03-08 08:07:00,
2013-03-08 01:12:00,26.0,24.0,27.05,East,90,3.0,3.0,92,0.00,,,0.00,Rainwise IP-100,2013-03-08 08:12:00,
2013-03-08 01:17:00,26.0,24.0,27.05,ESE,112,1.0,5.0,91,0.00,,,0.00,Rainwise IP-100,2013-03-08 08:17:00,
2013-03-08 01:22:00,26.0,24.0,27.05,ESE,112,0.0,5.0,91,0.00,,,0.00,Rainwise IP-100,2013-03-08 08:22:00,
2013-03-08 01:27:00,26.0,24.0,27.05,East,90,0.0,2.0,90,0.00,,,0.00,Rainwise IP-100,2013-03-08 08:27:00,
2013-03-08 01:32:00,26.0,24.0,27.05,East,90,0.0,0.0,91,0.00,,,0.00,Rainwise IP-100,2013-03-08 08:32:00,
2013-03-08 01:37:00,25.0,24.0,27.05,East,90,0.0,0.0,91,0.00,,,0.00,Rainwise IP-100,2013-03-08 08:37:00,
2013-03-08 01:42:00,25.0,24.0,27.05,East,90,0.0,0.0,92,0.00,,,0.00,Rainwise IP-100,2013-03-08 08:42:00,
2013-03-08 01:47:00,25.0,24.0,27.06,East,90,0.0,0.0,93,0.00,,,0.00,Rainwise IP-100,2013-03-08 08:47:00,
2013-03-08 01:52:00,25.0,24.0,27.06,ENE,67,2.0,3.0,96,0.00,,,0.00,Rainwise IP-100,2013-03-08 08:52:00,
2013-03-08 01:57:00,25.0,24.0,27.06,ESE,112,1.0,4.0,94,0.00,,,0.00,Rainwise IP-100,2013-03-08 08:57:00,
2013-03-08 02:02:00,25.0,24.0,27.06,ESE,112,0.0,3.0,93,0.00,,,0.00,Rainwise IP-100,2013-03-08 09:02:00,
2013-03-08 02:07:00,25.0,24.0,27.06,ESE,112,0.0,4.0,94,0.00,,,0.00,Rainwise IP-100,2013-03-08 09:07:00,
2013-03-08 02:12:00,25.0,24.0,27.06,ESE,112,0.0,4.0,93,0.00,,,0.00,Rainwise IP-100,2013-03-08 09:12:00,
2013-03-08 02:17:00,25.0,24.0,27.06,ESE,112,1.0,3.0,93,0.00,,,0.00,Rainwise IP-100,2013-03-08 09:17:00,
2013-03-08 02:22:00,25.0,24.0,27.06,ESE,112,0.0,2.0,93,0.00,,,0.00,Rainwise IP-100,2013-03-08 09:22:00,
2013-03-08 02:27:00,25.0,24.0,27.06,ESE,112,0.0,0.0,94,0.00,,,0.00,Rainwise IP-100,2013-03-08 09:27:00,
2013-03-08 02:32:00,25.0,24.0,27.06,East,90,0.0,2.0,94,0.00,,,0.00,Rainwise IP-100,2013-03-08 09:32:00,
2013-03-08 02:37:00,25.0,24.0,27.06,ENE,67,1.0,5.0,96,0.00,,,0.00,Rainwise IP-100,2013-03-08 09:37:00,
2013-03-08 02:42:00,25.0,24.0,27.06,ENE,67,2.0,3.0,96,0.00,,,0.00,Rainwise IP-100,2013-03-08 09:42:00,
2013-03-08 02:46:00,25.0,24.0,27.05,ESE,112,0.0,4.0,95,0.00,,,0.00,Rainwise IP-100,2013-03-08 09:46:00,
2013-03-08 02:51:00,25.0,24.0,27.05,ESE,112,3.0,6.0,94,0.00,,,0.00,Rainwise IP-100,2013-03-08 09:51:00,
2013-03-08 02:56:00,25.0,24.0,27.05,SE,135,2.0,4.0,94,0.00,,,0.00,Rainwise IP-100,2013-03-08 09:56:00,
2013-03-08 03:01:00,25.0,24.0,27.05,ENE,67,0.0,5.0,93,0.00,,,0.00,Rainwise IP-100,2013-03-08 10:01:00,
2013-03-08 03:06:00,25.0,24.0,27.05,ENE,67,0.0,1.0,93,0.00,,,0.00,Rainwise IP-100,2013-03-08 10:06:00,
2013-03-08 03:11:00,24.0,23.0,27.05,ENE,67,0.0,3.0,94,0.00,,,0.00,Rainwise IP-100,2013-03-08 10:11:00,
2013-03-08 03:16:00,24.0,23.0,27.05,ENE,67,0.0,2.0,94,0.00,,,0.00,Rainwise IP-100,2013-03-08 10:16:00,
2013-03-08 03:21:00,23.0,23.0,27.05,ENE,67,0.0,0.0,97,0.00,,,0.00,Rainwise IP-100,2013-03-08 10:21:00,
2013-03-08 03:26:00,23.0,21.0,27.06,ENE,67,0.0,0.0,95,0.00,,,0.00,Rainwise IP-100,2013-03-08 10:26:00,
2013-03-08 03:31:00,22.0,23.0,27.06,ENE,67,0.0,0.0,97,0.00,,,0.00,Rainwise IP-100,2013-03-08 10:31:00,
2013-03-08 03:36:00,22.0,23.0,27.06,ENE,67,0.0,0.0,98,0.00,,,0.00,Rainwise IP-100,2013-03-08 10:36:00,
2013-03-08 03:41:00,21.0,21.0,27.06,ENE,67,0.0,0.0,98,0.00,,,0.00,Rainwise IP-100,2013-03-08 10:41:00,
2013-03-08 03:46:00,22.0,23.0,27.06,ENE,67,0.0,0.0,98,0.00,,,0.00,Rainwise IP-100,2013-03-08 10:46:00,
2013-03-08 03:51:00,22.0,23.0,27.06,ENE,67,0.0,0.0,99,0.00,,,0.00,Rainwise IP-100,2013-03-08 10:51:00,
2013-03-08 03:56:00,21.0,21.0,27.06,ENE,67,0.0,0.0,100,0.00,,,0.00,Rainwise IP-100,2013-03-08 10:56:00,
2013-03-08 04:01:00,21.0,21.0,27.06,ENE,67,0.0,0.0,100,0.00,,,0.00,Rainwise IP-100,2013-03-08 11:01:00,
2013-03-08 04:06:00,21.0,21.0,27.07,ENE,67,0.0,0.0,100,0.00,,,0.00,Rainwise IP-100,2013-03-08 11:06:00,
2013-03-08 04:11:00,21.0,21.0,27.07,ENE,67,0.0,0.0,100,0.00,,,0.00,Rainwise IP-100,2013-03-08 11:11:00,
2013-03-08 04:16:00,21.0,21.0,27.07,ENE,67,0.0,0.0,100,0.00,,,0.00,Rainwise IP-100,2013-03-08 11:16:00,
2013-03-08 04:21:00,21.0,21.0,27.07,ENE,67,0.0,0.0,100,0.00,,,0.00,Rainwise IP-100,2013-03-08 11:21:00,
2013-03-08 04:26:00,21.0,21.0,27.07,ENE,67,0.0,0.0,100,0.00,,,0.00,Rainwise IP-100,2013-03-08 11:26:00,
2013-03-08 04:31:00,21.0,21.0,27.07,ENE,67,0.0,0.0,100,0.00,,,0.00,Rainwise IP-100,2013-03-08 11:31:00,
2013-03-08 04:36:00,21.0,21.0,27.07,ENE,67,0.0,0.0,100,0.00,,,0.00,Rainwise IP-100,2013-03-08 11:36:00,
2013-03-08 04:41:00,20.0,21.0,27.07,ENE,67,0.0,0.0,100,0.00,,,0.00,Rainwise IP-100,2013-03-08 11:41:00,
2013-03-08 04:46:00,20.0,21.0,27.07,ENE,67,0.0,0.0,100,0.00,,,0.00,Rainwise IP-100,2013-03-08 11:46:00,
2013-03-08 04:51:00,20.0,21.0,27.07,ENE,67,0.0,2.0,100,0.00,,,0.00,Rainwise IP-100,2013-03-08 11:51:00,
2013-03-08 04:56:00,20.0,21.0,27.07,ENE,67,0.0,0.0,100,0.00,,,0.00,Rainwise IP-100,2013-03-08 11:56:00,
2013-03-08 05:01:00,20.0,21.0,27.07,ENE,67,0.0,0.0,100,0.00,,,0.00,Rainwise IP-100,2013-03-08 12:01:00,
2013-03-08 05:06:00,20.0,21.0,27.07,ENE,67,0.0,0.0,100,0.00,,,0.00,Rainwise IP-100,2013-03-08 12:06:00,
2013-03-08 05:11:00,20.0,21.0,27.07,ENE,67,0.0,0.0,100,0.00,,,0.00,Rainwise IP-100,2013-03-08 12:11:00,
2013-03-08 05:16:00,20.0,21.0,27.08,ENE,67,0.0,0.0,100,0.00,,,0.00,Rainwise IP-100,2013-03-08 12:16:00,
2013-03-08 05:21:00,20.0,21.0,27.08,ENE,67,0.0,0.0,100,0.00,,,0.00,Rainwise IP-100,2013-03-08 12:21:00,
2013-03-08 05:26:00,19.0,21.0,27.08,ENE,67,0.0,0.0,100,0.00,,,0.00,Rainwise IP-100,2013-03-08 12:26:00,
2013-03-08 05:31:00,19.0,21.0,27.08,ENE,67,0.0,0.0,100,0.00,,,0.00,Rainwise IP-100,2013-03-08 12:31:00,
2013-03-08 05:36:00,20.0,21.0,27.08,ENE,67,0.0,0.0,100,0.00,,,0.00,Rainwise IP-100,2013-03-08 12:36:00,
2013-03-08 05:41:00,20.0,21.0,27.08,ENE,67,0.0,2.0,100,0.00,,,0.00,Rainwise IP-100,2013-03-08 12:41:00,
2013-03-08 05:46:00,20.0,21.0,27.07,ENE,67,0.0,1.0,100,0.00,,,0.00,Rainwise IP-100,2013-03-08 12:46:00,
2013-03-08 05:51:00,20.0,21.0,27.07,ENE,67,0.0,0.0,100,0.00,,,0.00,Rainwise IP-100,2013-03-08 12:51:00,
2013-03-08 05:56:00,20.0,21.0,27.07,ENE,67,0.0,0.0,100,0.00,,,0.00,Rainwise IP-100,2013-03-08 12:56:00,
2013-03-08 06:01:00,20.0,21.0,27.07,SE,135,3.0,3.0,100,0.00,,,0.00,Rainwise IP-100,2013-03-08 13:01:00,
2013-03-08 06:06:00,20.0,21.0,27.07,SE,135,1.0,3.0,100,0.00,,,0.00,Rainwise IP-100,2013-03-08 13:06:00,
2013-03-08 06:11:00,20.0,21.0,27.07,SE,135,0.0,1.0,100,0.00,,,0.00,Rainwise IP-100,2013-03-08 13:11:00,
2013-03-08 06:16:00,20.0,21.0,27.07,SE,135,0.0,1.0,100,0.00,,,0.00,Rainwise IP-100,2013-03-08 13:16:00,
2013-03-08 06:21:00,19.0,21.0,27.07,SE,135,0.0,0.0,100,0.00,,,0.00,Rainwise IP-100,2013-03-08 13:21:00,
2013-03-08 06:26:00,19.0,21.0,27.08,SE,135,0.0,0.0,100,0.00,,,0.00,Rainwise IP-100,2013-03-08 13:26:00,
2013-03-08 06:31:00,19.0,21.0,27.08,SE,135,0.0,0.0,100,0.00,,,0.00,Rainwise IP-100,2013-03-08 13:31:00,
2013-03-08 06:36:00,19.0,21.0,27.08,SE,135,0.0,0.0,100,0.00,,,0.00,Rainwise IP-100,2013-03-08 13:36:00,
2013-03-08 06:41:00,19.0,21.0,27.08,SE,135,0.0,0.0,100,0.00,,,0.00,Rainwise IP-100,2013-03-08 13:41:00,
2013-03-08 06:46:00,19.0,21.0,27.08,SE,135,0.0,0.0,100,0.00,,,0.00,Rainwise IP-100,2013-03-08 13:46:00,
2013-03-08 06:51:00,19.0,21.0,27.08,SE,135,0.0,0.0,100,0.00,,,0.00,Rainwise IP-100,2013-03-08 13:51:00,
2013-03-08 06:56:00,18.0,18.0,27.07,SE,135,0.0,0.0,100,0.00,,,0.00,Rainwise IP-100,2013-03-08 13:56:00,
2013-03-08 07:01:00,18.0,18.0,27.07,SE,135,0.0,0.0,100,0.00,,,0.00,Rainwise IP-100,2013-03-08 14:01:00,
2013-03-08 07:06:00,18.0,18.0,27.08,SE,135,0.0,0.0,100,0.00,,,0.00,Rainwise IP-100,2013-03-08 14:06:00,
2013-03-08 07:11:00,18.0,18.0,27.08,SE,135,0.0,0.0,100,0.00,,,0.00,Rainwise IP-100,2013-03-08 14:11:00,
2013-03-08 07:16:00,18.0,18.0,27.07,SE,135,0.0,0.0,100,0.00,,,0.00,Rainwise IP-100,2013-03-08 14:16:00,
2013-03-08 07:21:00,18.0,18.0,27.07,SE,135,0.0,0.0,100,0.00,,,0.00,Rainwise IP-100,2013-03-08 14:21:00,
2013-03-08 07:26:00,18.0,18.0,27.08,SE,135,0.0,1.0,100,0.00,,,0.00,Rainwise IP-100,2013-03-08 14:26:00,
2013-03-08 07:31:00,18.0,18.0,27.08,SE,135,0.0,0.0,100,0.00,,,0.00,Rainwise IP-100,2013-03-08 14:31:00,
2013-03-08 07:36:00,18.0,18.0,27.08,SE,135,0.0,0.0,100,0.00,,,0.00,Rainwise IP-100,2013-03-08 14:36:00,
2013-03-08 07:41:00,19.0,21.0,27.08,SE,135,0.0,0.0,100,0.00,,,0.00,Rainwise IP-100,2013-03-08 14:41:00,
2013-03-08 07:46:00,19.0,21.0,27.08,SE,135,0.0,0.0,100,0.00,,,0.00,Rainwise IP-100,2013-03-08 14:46:00,
2013-03-08 07:51:00,19.0,21.0,27.08,SE,135,0.0,0.0,100,0.00,,,0.00,Rainwise IP-100,2013-03-08 14:51:00,
2013-03-08 07:56:00,21.0,21.0,27.08,SE,135,0.0,0.0,100,0.00,,,0.00,Rainwise IP-100,2013-03-08 14:56:00,
2013-03-08 08:01:00,22.0,23.0,27.08,SE,135,0.0,0.0,100,0.00,,,0.00,Rainwise IP-100,2013-03-08 15:01:00,
2013-03-08 08:06:00,23.0,23.0,27.05,SE,135,0.0,1.0,100,0.00,,,0.00,Rainwise IP-100,2013-03-08 15:06:00,
2013-03-08 08:11:00,24.0,24.0,27.05,SW,225,0.0,2.0,100,0.00,,,0.00,Rainwise IP-100,2013-03-08 15:11:00,
2013-03-08 08:16:00,24.0,24.0,27.05,SW,225,0.0,2.0,100,0.00,,,0.00,Rainwise IP-100,2013-03-08 15:16:00,
2013-03-08 08:21:00,24.0,24.0,27.05,West,270,2.0,4.0,100,0.00,,,0.00,Rainwise IP-100,2013-03-08 15:21:00,
2013-03-08 08:26:00,25.0,26.0,27.04,West,270,3.0,4.0,100,0.00,,,0.00,Rainwise IP-100,2013-03-08 15:26:00,
2013-03-08 08:31:00,25.0,26.0,27.04,West,270,0.0,4.0,100,0.00,,,0.00,Rainwise IP-100,2013-03-08 15:31:00,
2013-03-08 08:36:00,26.0,26.0,27.04,West,270,1.0,2.0,100,0.00,,,0.00,Rainwise IP-100,2013-03-08 15:36:00,
2013-03-08 08:41:00,27.0,28.0,27.04,NW,315,0.0,4.0,100,0.00,,,0.00,Rainwise IP-100,2013-03-08 15:41:00,
2013-03-08 08:46:00,29.0,29.0,27.03,North,360,0.0,2.0,100,0.00,,,0.00,Rainwise IP-100,2013-03-08 15:46:00,
2013-03-08 08:51:00,29.0,28.0,27.03,WNW,292,2.0,5.0,95,0.00,,,0.00,Rainwise IP-100,2013-03-08 15:51:00,
2013-03-08 08:56:00,29.0,28.0,27.02,NNW,337,1.0,4.0,93,0.00,,,0.00,Rainwise IP-100,2013-03-08 15:56:00,
2013-03-08 09:01:00,29.0,28.0,27.02,NW,315,1.0,6.0,91,0.00,,,0.00,Rainwise IP-100,2013-03-08 16:01:00,
2013-03-08 09:06:00,30.0,29.0,27.01,NW,315,0.0,3.0,97,0.00,,,0.00,Rainwise IP-100,2013-03-08 16:06:00,
2013-03-08 09:11:00,30.0,29.0,27.01,WNW,292,0.0,5.0,93,0.00,,,0.00,Rainwise IP-100,2013-03-08 16:11:00,
2013-03-08 09:16:00,31.0,28.0,27.01,WNW,292,3.0,4.0,91,0.00,,,0.00,Rainwise IP-100,2013-03-08 16:16:00,
2013-03-08 09:21:00,31.0,28.0,27.01,WNW,292,3.0,5.0,87,0.00,,,0.00,Rainwise IP-100,2013-03-08 16:21:00,
2013-03-08 09:26:00,31.0,28.0,27.01,SW,225,0.0,6.0,87,0.00,,,0.00,Rainwise IP-100,2013-03-08 16:26:00,
2013-03-08 09:31:00,31.0,26.0,27.01,WNW,292,4.0,6.0,83,0.00,,,0.00,Rainwise IP-100,2013-03-08 16:31:00,
2013-03-08 09:36:00,32.0,28.0,27.00,WNW,292,0.0,5.0,82,0.00,,,0.00,Rainwise IP-100,2013-03-08 16:36:00,
2013-03-08 09:41:00,33.0,28.0,27.00,SW,225,1.0,6.0,77,0.00,,,0.00,Rainwise IP-100,2013-03-08 16:41:00,
2013-03-08 09:46:00,34.0,26.0,26.99,SSE,157,5.0,5.0,71,0.00,,,0.00,Rainwise IP-100,2013-03-08 16:46:00,
2013-03-08 09:51:00,34.0,26.0,26.99,SSW,202,2.0,6.0,69,0.00,,,0.00,Rainwise IP-100,2013-03-08 16:51:00,
2013-03-08 09:56:00,33.0,26.0,26.98,West,270,3.0,6.0,73,0.00,,,0.00,Rainwise IP-100,2013-03-08 16:56:00,
2013-03-08 10:01:00,34.0,26.0,26.98,NW,315,0.0,6.0,70,0.00,,,0.00,Rainwise IP-100,2013-03-08 17:01:00,
2013-03-08 10:06:00,35.0,24.0,26.97,SSW,202,1.0,3.0,66,0.00,,,0.00,Rainwise IP-100,2013-03-08 17:06:00,
2013-03-08 10:11:00,36.0,26.0,26.97,NNE,22,2.0,4.0,66,0.00,,,0.00,Rainwise IP-100,2013-03-08 17:11:00,
2013-03-08 10:16:00,36.0,26.0,26.97,SW,225,3.0,5.0,65,0.00,,,0.00,Rainwise IP-100,2013-03-08 17:16:00,
2013-03-08 10:21:00,36.0,26.0,26.97,SW,225,1.0,6.0,65,0.00,,,0.00,Rainwise IP-100,2013-03-08 17:21:00,
2013-03-08 10:26:00,37.0,26.0,26.96,South,180,3.0,6.0,62,0.00,,,0.00,Rainwise IP-100,2013-03-08 17:26:00,
2013-03-08 10:31:00,37.0,26.0,26.96,NW,315,3.0,4.0,62,0.00,,,0.00,Rainwise IP-100,2013-03-08 17:31:00,
2013-03-08 10:36:00,38.0,26.0,26.95,NW,315,1.0,5.0,61,0.00,,,0.00,Rainwise IP-100,2013-03-08 17:36:00,
2013-03-08 10:41:00,37.0,26.0,26.95,SSE,157,3.0,8.0,62,0.00,,,0.00,Rainwise IP-100,2013-03-08 17:41:00,
2013-03-08 10:46:00,38.0,26.0,26.96,SSE,157,1.0,6.0,60,0.00,,,0.00,Rainwise IP-100,2013-03-08 17:46:00,
2013-03-08 10:51:00,38.0,26.0,26.96,West,270,4.0,6.0,60,0.00,,,0.00,Rainwise IP-100,2013-03-08 17:51:00,
2013-03-08 10:56:00,37.0,24.0,26.96,West,270,6.0,6.0,61,0.00,,,0.00,Rainwise IP-100,2013-03-08 17:56:00,
2013-03-08 11:01:00,37.0,26.0,26.96,NW,315,2.0,6.0,62,0.00,,,0.00,Rainwise IP-100,2013-03-08 18:01:00,
2013-03-08 11:06:00,37.0,24.0,26.95,SE,135,3.0,7.0,59,0.00,,,0.00,Rainwise IP-100,2013-03-08 18:06:00,
2013-03-08 11:11:00,38.0,26.0,26.95,NNW,337,5.0,6.0,60,0.00,,,0.00,Rainwise IP-100,2013-03-08 18:11:00,
2013-03-08 11:16:00,39.0,26.0,26.94,WNW,292,0.0,6.0,57,0.00,,,0.00,Rainwise IP-100,2013-03-08 18:16:00,
2013-03-08 11:21:00,39.0,24.0,26.94,NE,45,0.0,6.0,56,0.00,,,0.00,Rainwise IP-100,2013-03-08 18:21:00,
2013-03-08 11:26:00,40.0,26.0,26.93,ENE,67,3.0,6.0,54,0.00,,,0.00,Rainwise IP-100,2013-03-08 18:26:00,
2013-03-08 11:31:00,39.0,24.0,26.93,WNW,292,6.0,7.0,56,0.00,,,0.00,Rainwise IP-100,2013-03-08 18:31:00,
2013-03-08 11:36:00,38.0,24.0,26.94,West,270,6.0,7.0,57,0.00,,,0.00,Rainwise IP-100,2013-03-08 18:36:00,
2013-03-08 11:41:00,38.0,24.0,26.94,WNW,292,1.0,7.0,57,0.00,,,0.00,Rainwise IP-100,2013-03-08 18:41:00,
2013-03-08 11:46:00,39.0,24.0,26.94,SSW,202,1.0,5.0,55,0.00,,,0.00,Rainwise IP-100,2013-03-08 18:46:00,
2013-03-08 11:47:00,39.0,24.0,26.94,SSE,157,2.0,5.0,55,0.00,,,0.00,Rainwise IP-100,2013-03-08 18:47:00,
2013-03-08 11:52:00,40.0,26.0,26.94,NE,45,4.0,7.0,54,0.00,,,0.00,Rainwise IP-100,2013-03-08 18:52:00,
2013-03-08 11:57:00,40.0,26.0,26.93,NNE,22,2.0,7.0,54,0.00,,,0.00,Rainwise IP-100,2013-03-08 18:57:00,
2013-03-08 12:02:00,41.0,26.0,26.93,NNE,22,1.0,7.0,54,0.00,,,0.00,Rainwise IP-100,2013-03-08 19:02:00,
2013-03-08 12:07:00,41.0,26.0,26.92,NW,315,2.0,7.0,54,0.00,,,0.00,Rainwise IP-100,2013-03-08 19:07:00,
2013-03-08 12:12:00,41.0,24.0,26.92,ENE,67,7.0,7.0,51,0.00,,,0.00,Rainwise IP-100,2013-03-08 19:12:00,
2013-03-08 12:17:00,41.0,26.0,26.92,NW,315,3.0,8.0,53,0.00,,,0.00,Rainwise IP-100,2013-03-08 19:17:00,
2013-03-08 12:22:00,41.0,26.0,26.92,NNW,337,5.0,6.0,52,0.00,,,0.00,Rainwise IP-100,2013-03-08 19:22:00,
2013-03-08 12:27:00,41.0,24.0,26.92,NNW,337,6.0,7.0,50,0.00,,,0.00,Rainwise IP-100,2013-03-08 19:27:00,
2013-03-08 12:32:00,41.0,24.0,26.92,ENE,67,5.0,7.0,49,0.00,,,0.00,Rainwise IP-100,2013-03-08 19:32:00,
2013-03-08 12:37:00,42.0,24.0,26.91,NNW,337,6.0,9.0,49,0.00,,,0.00,Rainwise IP-100,2013-03-08 19:37:00,
2013-03-08 12:42:00,42.0,26.0,26.91,WNW,292,4.0,8.0,50,0.00,,,0.00,Rainwise IP-100,2013-03-08 19:42:00,
2013-03-08 12:47:00,42.0,26.0,26.90,WNW,292,3.0,7.0,50,0.00,,,0.00,Rainwise IP-100,2013-03-08 19:47:00,
2013-03-08 12:52:00,43.0,26.0,26.90,SE,135,1.0,6.0,49,0.00,,,0.00,Rainwise IP-100,2013-03-08 19:52:00,
2013-03-08 12:57:00,44.0,26.0,26.89,North,360,4.0,6.0,48,0.00,,,0.00,Rainwise IP-100,2013-03-08 19:57:00,
2013-03-08 13:02:00,44.0,26.0,26.89,NW,315,6.0,7.0,47,0.00,,,0.00,Rainwise IP-100,2013-03-08 20:02:00,
2013-03-08 13:07:00,44.0,26.0,26.88,WNW,292,2.0,6.0,47,0.00,,,0.00,Rainwise IP-100,2013-03-08 20:07:00,
2013-03-08 13:12:00,45.0,26.0,26.88,SSE,157,3.0,5.0,45,0.00,,,0.00,Rainwise IP-100,2013-03-08 20:12:00,
2013-03-08 13:17:00,46.0,26.0,26.87,NNE,22,3.0,5.0,45,0.00,,,0.00,Rainwise IP-100,2013-03-08 20:17:00,
2013-03-08 13:22:00,46.0,24.0,26.87,NNW,337,4.0,7.0,42,0.00,,,0.00,Rainwise IP-100,2013-03-08 20:22:00,
2013-03-08 13:27:00,47.0,24.0,26.86,NNW,337,3.0,6.0,42,0.00,,,0.00,Rainwise IP-100,2013-03-08 20:27:00,
2013-03-08 13:32:00,46.0,23.0,26.86,NNE,22,3.0,8.0,40,0.00,,,0.00,Rainwise IP-100,2013-03-08 20:32:00,
2013-03-08 13:37:00,46.0,24.0,26.85,NW,315,4.0,6.0,41,0.00,,,0.00,Rainwise IP-100,2013-03-08 20:37:00,
2013-03-08 13:42:00,46.0,23.0,26.85,NE,45,2.0,7.0,38,0.00,,,0.00,Rainwise IP-100,2013-03-08 20:42:00,
2013-03-08 13:47:00,46.0,23.0,26.85,NNE,22,4.0,8.0,38,0.00,,,0.00,Rainwise IP-100,2013-03-08 20:47:00,
2013-03-08 13:52:00,45.0,23.0,26.85,WNW,292,4.0,9.0,40,0.00,,,0.00,Rainwise IP-100,2013-03-08 20:52:00,
2013-03-08 13:57:00,46.0,23.0,26.85,WSW,247,1.0,6.0,40,0.00,,,0.00,Rainwise IP-100,2013-03-08 20:57:00,
2013-03-08 14:02:00,46.0,23.0,26.85,West,270,1.0,9.0,40,0.00,,,0.00,Rainwise IP-100,2013-03-08 21:02:00,
2013-03-08 14:07:00,47.0,24.0,26.84,NW,315,2.0,7.0,40,0.00,,,0.00,Rainwise IP-100,2013-03-08 21:07:00,
2013-03-08 14:12:00,47.0,23.0,26.84,NNE,22,4.0,9.0,39,0.00,,,0.00,Rainwise IP-100,2013-03-08 21:12:00,
2013-03-08 14:17:00,47.0,24.0,26.83,NNW,337,2.0,7.0,40,0.00,,,0.00,Rainwise IP-100,2013-03-08 21:17:00,
2013-03-08 14:22:00,47.0,24.0,26.83,North,360,5.0,9.0,40,0.00,,,0.00,Rainwise IP-100,2013-03-08 21:22:00,
2013-03-08 14:27:00,47.0,23.0,26.83,WNW,292,5.0,8.0,39,0.00,,,0.00,Rainwise IP-100,2013-03-08 21:27:00,
2013-03-08 14:32:00,48.0,24.0,26.83,WNW,292,2.0,9.0,37,0.00,,,0.00,Rainwise IP-100,2013-03-08 21:32:00,
2013-03-08 14:37:00,49.0,24.0,26.82,SSW,202,1.0,7.0,36,0.00,,,0.00,Rainwise IP-100,2013-03-08 21:37:00,
2013-03-08 14:42:00,49.0,23.0,26.82,NW,315,6.0,9.0,35,0.00,,,0.00,Rainwise IP-100,2013-03-08 21:42:00,
2013-03-08 14:47:00,49.0,21.0,26.82,WNW,292,5.0,7.0,32,0.00,,,0.00,Rainwise IP-100,2013-03-08 21:47:00,
2013-03-08 14:52:00,49.0,23.0,26.82,WSW,247,5.0,8.0,33,0.00,,,0.00,Rainwise IP-100,2013-03-08 21:52:00,
2013-03-08 14:57:00,49.0,21.0,26.81,WNW,292,7.0,10.0,31,0.00,,,0.00,Rainwise IP-100,2013-03-08 21:57:00,
2013-03-08 15:02:00,49.0,23.0,26.81,NNW,337,1.0,10.0,33,0.00,,,0.00,Rainwise IP-100,2013-03-08 22:02:00,
2013-03-08 15:07:00,49.0,23.0,26.81,WNW,292,5.0,9.0,34,0.00,,,0.00,Rainwise IP-100,2013-03-08 22:07:00,
2013-03-08 15:12:00,50.0,23.0,26.81,WNW,292,9.0,9.0,33,0.00,,,0.00,Rainwise IP-100,2013-03-08 22:12:00,
2013-03-08 15:17:00,49.0,23.0,26.81,NW,315,7.0,11.0,33,0.00,,,0.00,Rainwise IP-100,2013-03-08 22:17:00,
2013-03-08 15:22:00,50.0,23.0,26.81,WNW,292,3.0,9.0,33,0.00,,,0.00,Rainwise IP-100,2013-03-08 22:22:00,
2013-03-08 15:27:00,49.0,21.0,26.81,NW,315,6.0,10.0,30,0.00,,,0.00,Rainwise IP-100,2013-03-08 22:27:00,
2013-03-08 15:32:00,50.0,21.0,26.81,North,360,2.0,11.0,30,0.00,,,0.00,Rainwise IP-100,2013-03-08 22:32:00,
2013-03-08 15:37:00,51.0,21.0,26.80,WNW,292,7.0,9.0,29,0.00,,,0.00,Rainwise IP-100,2013-03-08 22:37:00,
2013-03-08 15:42:00,50.0,21.0,26.80,WNW,292,9.0,13.0,31,0.00,,,0.00,Rainwise IP-100,2013-03-08 22:42:00,
2013-03-08 15:47:00,50.0,21.0,26.81,NNW,337,4.0,11.0,31,0.00,,,0.00,Rainwise IP-100,2013-03-08 22:47:00,
2013-03-08 15:52:00,50.0,18.0,26.81,NW,315,6.0,13.0,28,0.00,,,0.00,Rainwise IP-100,2013-03-08 22:52:00,
2013-03-08 15:57:00,50.0,21.0,26.81,NNW,337,10.0,12.0,30,0.00,,,0.00,Rainwise IP-100,2013-03-08 22:57:00,
2013-03-08 16:02:00,50.0,21.0,26.81,WNW,292,6.0,13.0,30,0.00,,,0.00,Rainwise IP-100,2013-03-08 23:02:00,
2013-03-08 16:07:00,50.0,21.0,26.81,NNW,337,6.0,15.0,31,0.00,,,0.00,Rainwise IP-100,2013-03-08 23:07:00,
2013-03-08 16:12:00,49.0,18.0,26.81,NNW,337,6.0,13.0,29,0.00,,,0.00,Rainwise IP-100,2013-03-08 23:12:00,
2013-03-08 16:17:00,50.0,21.0,26.80,North,360,8.0,12.0,30,0.00,,,0.00,Rainwise IP-100,2013-03-08 23:17:00,
2013-03-08 16:22:00,50.0,21.0,26.80,WNW,292,7.0,13.0,31,0.00,,,0.00,Rainwise IP-100,2013-03-08 23:22:00,
2013-03-08 16:27:00,50.0,21.0,26.80,NW,315,5.0,15.0,30,0.00,,,0.00,Rainwise IP-100,2013-03-08 23:27:00,
2013-03-08 16:32:00,49.0,21.0,26.80,NNW,337,5.0,11.0,32,0.00,,,0.00,Rainwise IP-100,2013-03-08 23:32:00,
2013-03-08 16:37:00,49.0,21.0,26.80,WNW,292,6.0,11.0,32,0.00,,,0.00,Rainwise IP-100,2013-03-08 23:37:00,
2013-03-08 16:42:00,49.0,21.0,26.80,North,360,6.0,15.0,32,0.00,,,0.00,Rainwise IP-100,2013-03-08 23:42:00,
2013-03-08 16:47:00,49.0,23.0,26.81,NNW,337,4.0,11.0,33,0.00,,,0.00,Rainwise IP-100,2013-03-08 23:47:00,
2013-03-08 16:52:00,49.0,21.0,26.81,NNW,337,7.0,12.0,32,0.00,,,0.00,Rainwise IP-100,2013-03-08 23:52:00,
2013-03-08 16:57:00,49.0,21.0,26.81,NW,315,9.0,12.0,32,0.00,,,0.00,Rainwise IP-100,2013-03-08 23:57:00,
2013-03-08 17:02:00,49.0,23.0,26.81,NW,315,6.0,13.0,33,0.00,,,0.00,Rainwise IP-100,2013-03-09 00:02:00,
2013-03-08 17:07:00,48.0,23.0,26.81,NNW,337,6.0,12.0,34,0.00,,,0.00,Rainwise IP-100,2013-03-09 00:07:00,
2013-03-08 17:12:00,48.0,23.0,26.81,NNW,337,7.0,12.0,35,0.00,,,0.00,Rainwise IP-100,2013-03-09 00:12:00,
2013-03-08 17:17:00,48.0,23.0,26.82,North,360,7.0,10.0,34,0.00,,,0.00,Rainwise IP-100,2013-03-09 00:17:00,
2013-03-08 17:22:00,48.0,23.0,26.82,NNW,337,6.0,11.0,35,0.00,,,0.00,Rainwise IP-100,2013-03-09 00:22:00,
2013-03-08 17:27:00,47.0,23.0,26.83,NNW,337,4.0,8.0,37,0.00,,,0.00,Rainwise IP-100,2013-03-09 00:27:00,
2013-03-08 17:32:00,46.0,21.0,26.83,NNW,337,5.0,9.0,37,0.00,,,0.00,Rainwise IP-100,2013-03-09 00:32:00,
2013-03-08 17:37:00,46.0,21.0,26.84,NNW,337,5.0,10.0,37,0.00,,,0.00,Rainwise IP-100,2013-03-09 00:37:00,
2013-03-08 17:42:00,46.0,23.0,26.84,NNW,337,6.0,9.0,38,0.00,,,0.00,Rainwise IP-100,2013-03-09 00:42:00,
2013-03-08 17:47:00,45.0,21.0,26.84,NNW,337,8.0,14.0,38,0.00,,,0.00,Rainwise IP-100,2013-03-09 00:47:00,
2013-03-08 17:52:00,45.0,23.0,26.84,NNW,337,6.0,10.0,39,0.00,,,0.00,Rainwise IP-100,2013-03-09 00:52:00,
2013-03-08 17:57:00,45.0,23.0,26.85,NNW,337,4.0,11.0,39,0.00,,,0.00,Rainwise IP-100,2013-03-09 00:57:00,
2013-03-08 18:02:00,45.0,23.0,26.85,WNW,292,6.0,9.0,40,0.00,,,0.00,Rainwise IP-100,2013-03-09 01:02:00,
2013-03-08 18:07:00,45.0,23.0,26.85,NNW,337,5.0,9.0,39,0.00,,,0.00,Rainwise IP-100,2013-03-09 01:07:00,
2013-03-08 18:12:00,45.0,23.0,26.85,NW,315,5.0,10.0,40,0.00,,,0.00,Rainwise IP-100,2013-03-09 01:12:00,
2013-03-08 18:17:00,44.0,23.0,26.85,North,360,6.0,10.0,40,0.00,,,0.00,Rainwise IP-100,2013-03-09 01:17:00,
2013-03-08 18:22:00,44.0,23.0,26.85,North,360,6.0,8.0,41,0.00,,,0.00,Rainwise IP-100,2013-03-09 01:22:00,
2013-03-08 18:27:00,43.0,21.0,26.86,North,360,6.0,8.0,41,0.00,,,0.00,Rainwise IP-100,2013-03-09 01:27:00,
2013-03-08 18:32:00,43.0,23.0,26.86,NW,315,4.0,9.0,42,0.00,,,0.00,Rainwise IP-100,2013-03-09 01:32:00,
2013-03-08 18:37:00,42.0,21.0,26.87,WNW,292,6.0,7.0,42,0.00,,,0.00,Rainwise IP-100,2013-03-09 01:37:00,
2013-03-08 18:42:00,42.0,21.0,26.87,NNW,337,3.0,8.0,42,0.00,,,0.00,Rainwise IP-100,2013-03-09 01:42:00,
2013-03-08 18:47:00,42.0,21.0,26.87,WNW,292,3.0,8.0,42,0.00,,,0.00,Rainwise IP-100,2013-03-09 01:47:00,
2013-03-08 18:52:00,41.0,21.0,26.87,NNW,337,3.0,7.0,43,0.00,,,0.00,Rainwise IP-100,2013-03-09 01:52:00,
2013-03-08 18:57:00,41.0,21.0,26.89,NNW,337,2.0,5.0,44,0.00,,,0.00,Rainwise IP-100,2013-03-09 01:57:00,
2013-03-08 19:02:00,41.0,21.0,26.89,WNW,292,6.0,6.0,44,0.00,,,0.00,Rainwise IP-100,2013-03-09 02:02:00,
2013-03-08 19:07:00,40.0,21.0,26.89,West,270,4.0,6.0,44,0.00,,,0.00,Rainwise IP-100,2013-03-09 02:07:00,
2013-03-08 19:12:00,40.0,23.0,26.89,West,270,0.0,6.0,46,0.00,,,0.00,Rainwise IP-100,2013-03-09 02:12:00,
2013-03-08 19:17:00,39.0,21.0,26.90,West,270,0.0,5.0,46,0.00,,,0.00,Rainwise IP-100,2013-03-09 02:17:00,
2013-03-08 19:22:00,39.0,21.0,26.90,WNW,292,4.0,6.0,47,0.00,,,0.00,Rainwise IP-100,2013-03-09 02:22:00,
2013-03-08 19:27:00,39.0,21.0,26.91,NNW,337,1.0,6.0,46,0.00,,,0.00,Rainwise IP-100,2013-03-09 02:27:00,
2013-03-08 19:32:00,39.0,21.0,26.91,WNW,292,1.0,6.0,46,0.00,,,0.00,Rainwise IP-100,2013-03-09 02:32:00,
2013-03-08 19:37:00,39.0,21.0,26.92,WNW,292,2.0,4.0,47,0.00,,,0.00,Rainwise IP-100,2013-03-09 02:37:00,
2013-03-08 19:42:00,38.0,21.0,26.92,NW,315,2.0,4.0,47,0.00,,,0.00,Rainwise IP-100,2013-03-09 02:42:00,
2013-03-08 19:47:00,38.0,21.0,26.93,NNE,22,0.0,4.0,49,0.00,,,0.00,Rainwise IP-100,2013-03-09 02:47:00,
2013-03-08 19:52:00,37.0,23.0,26.93,ESE,112,2.0,4.0,53,0.00,,,0.00,Rainwise IP-100,2013-03-09 02:52:00,
2013-03-08 19:57:00,37.0,23.0,26.94,ESE,112,1.0,3.0,54,0.00,,,0.00,Rainwise IP-100,2013-03-09 02:57:00,
2013-03-08 20:02:00,36.0,23.0,26.94,ESE,112,1.0,3.0,56,0.00,,,0.00,Rainwise IP-100,2013-03-09 03:02:00,
2013-03-08 20:07:00,35.0,23.0,26.95,ESE,112,0.0,2.0,58,0.00,,,0.00,Rainwise IP-100,2013-03-09 03:07:00,
2013-03-08 20:12:00,35.0,23.0,26.95,ESE,112,2.0,2.0,60,0.00,,,0.00,Rainwise IP-100,2013-03-09 03:12:00,
2013-03-08 20:17:00,35.0,23.0,26.96,ESE,112,0.0,4.0,60,0.00,,,0.00,Rainwise IP-100,2013-03-09 03:17:00,
2013-03-08 20:22:00,35.0,23.0,26.96,ESE,112,0.0,4.0,60,0.00,,,0.00,Rainwise IP-100,2013-03-09 03:22:00,
2013-03-08 20:27:00,34.0,23.0,26.96,ESE,112,1.0,3.0,62,0.00,,,0.00,Rainwise IP-100,2013-03-09 03:27:00,
2013-03-08 20:32:00,34.0,23.0,26.96,ESE,112,0.0,3.0,61,0.00,,,0.00,Rainwise IP-100,2013-03-09 03:32:00,
2013-03-08 20:37:00,33.0,23.0,26.97,ESE,112,0.0,0.0,63,0.00,,,0.00,Rainwise IP-100,2013-03-09 03:37:00,
2013-03-08 20:42:00,33.0,23.0,26.97,ESE,112,0.0,1.0,64,0.00,,,0.00,Rainwise IP-100,2013-03-09 03:42:00,
2013-03-08 20:47:00,32.0,23.0,26.98,SE,135,2.0,3.0,67,0.00,,,0.00,Rainwise IP-100,2013-03-09 03:47:00,
2013-03-08 20:52:00,32.0,23.0,26.98,SE,135,0.0,3.0,67,0.00,,,0.00,Rainwise IP-100,2013-03-09 03:52:00,
2013-03-08 20:57:00,31.0,23.0,27.00,SE,135,0.0,0.0,70,0.00,,,0.00,Rainwise IP-100,2013-03-09 03:57:00,
2013-03-08 21:02:00,31.0,23.0,27.00,SE,135,2.0,0.0,72,0.00,,,0.00,Rainwise IP-100,2013-03-09 04:02:00,
2013-03-08 21:07:00,30.0,23.0,27.00,SE,135,1.0,2.0,72,0.00,,,0.00,Rainwise IP-100,2013-03-09 04:07:00,
2013-03-08 21:12:00,30.0,23.0,27.00,SE,135,0.0,2.0,72,0.00,,,0.00,Rainwise IP-100,2013-03-09 04:12:00,
2013-03-08 21:17:00,30.0,23.0,27.01,SE,135,0.0,0.0,73,0.00,,,0.00,Rainwise IP-100,2013-03-09 04:17:00,
2013-03-08 21:22:00,30.0,23.0,27.01,SE,135,0.0,0.0,73,0.00,,,0.00,Rainwise IP-100,2013-03-09 04:22:00,
2013-03-08 21:27:00,29.0,23.0,27.01,SE,135,0.0,0.0,74,0.00,,,0.00,Rainwise IP-100,2013-03-09 04:27:00,
2013-03-08 21:32:00,29.0,23.0,27.01,SE,135,0.0,0.0,74,0.00,,,0.00,Rainwise IP-100,2013-03-09 04:32:00,
2013-03-08 21:37:00,28.0,21.0,27.02,SE,135,0.0,0.0,76,0.00,,,0.00,Rainwise IP-100,2013-03-09 04:37:00,
2013-03-08 21:42:00,28.0,23.0,27.02,SE,135,0.0,2.0,77,0.00,,,0.00,Rainwise IP-100,2013-03-09 04:42:00,
2013-03-08 21:47:00,28.0,23.0,27.02,SE,135,0.0,2.0,78,0.00,,,0.00,Rainwise IP-100,2013-03-09 04:47:00,
2013-03-08 21:52:00,28.0,23.0,27.02,SE,135,0.0,0.0,77,0.00,,,0.00,Rainwise IP-100,2013-03-09 04:52:00,
2013-03-08 21:57:00,28.0,23.0,27.03,SE,135,0.0,4.0,78,0.00,,,0.00,Rainwise IP-100,2013-03-09 04:57:00,
2013-03-08 22:00:00,28.0,23.0,27.03,SE,135,0.0,4.0,78,0.00,,,0.00,Rainwise IP-100,2013-03-09 05:00:00,
2013-03-08 22:05:00,28.0,23.0,27.03,SE,135,0.0,0.0,77,0.00,,,0.00,Rainwise IP-100,2013-03-09 05:05:00,
2013-03-08 22:10:00,29.0,23.0,27.03,SW,225,1.0,5.0,78,0.00,,,0.00,Rainwise IP-100,2013-03-09 05:10:00,
2013-03-08 22:15:00,29.0,23.0,27.03,SSE,157,2.0,6.0,75,0.00,,,0.00,Rainwise IP-100,2013-03-09 05:15:00,
2013-03-08 22:20:00,29.0,23.0,27.03,SE,135,3.0,4.0,75,0.00,,,0.00,Rainwise IP-100,2013-03-09 05:20:00,
2013-03-08 22:25:00,29.0,23.0,27.03,SE,135,0.0,4.0,74,0.00,,,0.00,Rainwise IP-100,2013-03-09 05:25:00,
2013-03-08 22:28:00,29.0,23.0,27.03,SE,135,0.0,1.0,75,0.00,,,0.00,Rainwise IP-100,2013-03-09 05:28:00,
2013-03-08 22:33:00,28.0,23.0,27.03,SE,135,2.0,2.0,77,0.00,,,0.00,Rainwise IP-100,2013-03-09 05:33:00,
2013-03-08 22:38:00,28.0,23.0,27.03,SE,135,0.0,3.0,77,0.00,,,0.00,Rainwise IP-100,2013-03-09 05:38:00,
2013-03-08 22:43:00,29.0,23.0,27.03,ESE,112,5.0,5.0,75,0.00,,,0.00,Rainwise IP-100,2013-03-09 05:43:00,
2013-03-08 22:48:00,29.0,23.0,27.03,South,180,1.0,5.0,75,0.00,,,0.00,Rainwise IP-100,2013-03-09 05:48:00,
2013-03-08 22:53:00,29.0,23.0,27.03,ESE,112,0.0,4.0,75,0.00,,,0.00,Rainwise IP-100,2013-03-09 05:53:00,
2013-03-08 22:58:00,29.0,23.0,27.03,SE,135,0.0,4.0,75,0.00,,,0.00,Rainwise IP-100,2013-03-09 05:58:00,
2013-03-08 23:03:00,28.0,21.0,27.03,SE,135,0.0,0.0,76,0.00,,,0.00,Rainwise IP-100,2013-03-09 06:03:00,
2013-03-08 23:08:00,28.0,23.0,27.04,SSE,157,1.0,5.0,78,0.00,,,0.00,Rainwise IP-100,2013-03-09 06:08:00,
2013-03-08 23:13:00,28.0,23.0,27.04,SSE,157,0.0,2.0,79,0.00,,,0.00,Rainwise IP-100,2013-03-09 06:13:00,
2013-03-08 23:18:00,27.0,23.0,27.05,West,270,0.0,4.0,78,0.00,,,0.00,Rainwise IP-100,2013-03-09 06:18:00,
2013-03-08 23:23:00,27.0,23.0,27.05,West,270,0.0,0.0,78,0.00,,,0.00,Rainwise IP-100,2013-03-09 06:23:00,
2013-03-08 23:28:00,27.0,23.0,27.05,South,180,2.0,4.0,81,0.00,,,0.00,Rainwise IP-100,2013-03-09 06:28:00,
2013-03-08 23:33:00,27.0,23.0,27.05,South,180,0.0,3.0,80,0.00,,,0.00,Rainwise IP-100,2013-03-09 06:33:00,
2013-03-08 23:38:00,26.0,23.0,27.05,South,180,1.0,4.0,83,0.00,,,0.00,Rainwise IP-100,2013-03-09 06:38:00,
2013-03-08 23:43:00,27.0,23.0,27.05,ESE,112,2.0,4.0,81,0.00,,,0.00,Rainwise IP-100,2013-03-09 06:43:00,
2013-03-08 23:48:00,27.0,23.0,27.05,ESE,112,0.0,2.0,79,0.00,,,0.00,Rainwise IP-100,2013-03-09 06:48:00,
2013-03-08 23:53:00,27.0,23.0,27.05,ESE,112,2.0,2.0,82,0.00,,,0.00,Rainwise IP-100,2013-03-09 06:53:00,
2013-03-08 23:58:00,26.0,23.0,27.05,ESE,112,0.0,2.0,83,0.00,,,0.00,Rainwise IP-100,2013-03-09 06:58:00,